Zurück zum Katalog

STARLINK-35313

AktivKommunikationVLEO
NORAD 65758·PAYLOAD·🇺🇸 United States

Gestartet Sep 25, 2025 von Cape Canaveral Space Force Station

Loading…

Nächste Überflüge (nächste 24 Stunden)

TLE

AktuellSource: CelesTrak SupGP

Epoche: Sep 15, 2026, 02:40 UTC

1 65758C 25216AA  26258.11159722 -.00036845  00000+0 -10885-2 0  2587
2 65758  53.1573 170.9250 0001311  80.4265 321.3113 15.34412066    19

Verfolge STARLINK-35313 in Echtzeit mit AllMySat

Download on the App Store